Regional Weather Roundup
Issued by NWS

Home | Current Version | Previous Version | Text Only | Print | Product List | Glossary Off
Versions: 1 2 3 4 5 6 7 8 9 10 11 12 13 14 15 16 17 18 19 20 21 22 23 24 25 26 27 28 29 30 31 32 33 34 35 36 37 38 39 40 41 42 43 44 45 46 47 48 49 50

000
ASUS43 KDMX 060307
RWRIA

WEATHER ROUNDUP FOR IOWA
NATIONAL WEATHER SERVICE DES MOINES IA
1000 PM CDT TUE MAY 05 2015

NOTE: "FAIR" INDICATES FEW OR NO CLOUDS BELOW 12,000 FEET WITH NO
SIGNIFICANT WEATHER AND/OR OBSTRUCTIONS TO VISIBILITY.

* - THESE STATIONS ARE NOT NWS STATIONS...THUS NOT UNDER NWS
QUALITY CONTROL.  THEY ALSO DO NOT REPORT WEATHER SUCH
AS PRECIPITATION OR FOG.

IAZ001>003-012>014-020>022-031>034-043>046-060400-
   NORTHWEST IOWA

CITY           SKY/WX    TMP DP  RH WIND       PRES   REMARKS
CARROLL *      PTCLDY    64  63  94 E15       30.04R
CHEROKEE *     CLOUDY    64  64 100 E10       30.01S FOG
DENISON *      CLEAR     64  63  94 SE6       30.00R
LE MARS *      CLEAR     66  63  88 E10G17    30.00R
ORANGE CITY *  CLOUDY    61  61 100 E13G18    30.00S FOG
SHELDON *      CLOUDY    61  61 100 SE21      30.01S FOG
SIOUX CITY     CLOUDY    67  57  70 SE10      29.97R
SPENCER        FOG       60 N/A N/A E14       30.05S VSB 1/2
STORM LAKE *   MOCLDY    63  63 100 E16G22    30.04R FOG
$$

IAZ055>058-069>071-079>083-090>094-060400-
   SOUTHWEST IOWA

CITY           SKY/WX    TMP DP  RH WIND       PRES   REMARKS
ATLANTIC *     CLEAR     70  59  68 SE8       30.02R
AUDUBON *      CLEAR     64  57  77 S3        30.05R
CLARINDA *     MOCLDY    66  59  77 SW7G14    30.05R
COUNCIL BLFS * CLEAR     68  63  83 SE12      30.00R
CRESTON *      CLEAR     66  61  82 SE8       30.05R
HARLAN  *      CLEAR     66  63  88 SE7       30.05R
LAMONI         CLOUDY    71  58  63 SE7       30.06R
RED OAK *      MOCLDY    70  59  68 SE13      30.01R
SHENANDOAH *   CLOUDY    66  59  77 S20G25    30.02R
$$

IAZ047>049-059>061-072>074-084-060400-
   CENTRAL IOWA

CITY           SKY/WX    TMP DP  RH WIND       PRES   REMARKS
AMES           CLOUDY    65  63  93 E8        30.08R FOG
ANKENY *       CLEAR     68  64  88 E10       30.06R
CHARITON *     CLOUDY    70  61  73 SE7       30.07R
DES MOINES     MOCLDY    73  57  57 SE8       30.05R
GRINNELL*      CLOUDY    64  63  94 E12G17    30.11R FOG
KNOXVILLE *    PTCLDY    68  63  83 E10       30.06R
MARSHALLTOWN   CLOUDY    62  61  96 E16       30.10R FOG
PELLA *        CLOUDY    66  66 100 E8        30.09R FOG
PERRY *          N/A     66  64  94 E13       30.05S FOG
$$

IAZ004>006-015-016-023>025-035-036-060400-
   NORTH CENTRAL IOWA

CITY           SKY/WX    TMP DP  RH WIND       PRES   REMARKS
ALGONA *       FOG       57  57 100 SE15G22   30.08S VSB 1/4
CLARION *      FOG       59  59 100 E15       30.09R VSB 1
ESTHERVILLE    FOG       55  55 100 SE15      30.08S VSB 1/2
FORT DODGE *   CLOUDY    61  57  88 SE16      30.08R
MASON CITY     FOG       55  55 100 SE15      30.13S VSB 1/2
FOREST CITY *  FOG       54  54 100 E12G17    30.11S VSB 1/2
IOWA FALLS *   FOG       59  59 100 E15       30.12R VSB 1/4
$$

IAZ007>011-017>019-026>030-037>042-050>054-066-060400-
   NORTHEAST IOWA

CITY           SKY/WX    TMP DP  RH WIND       PRES   REMARKS
CEDAR RAPIDS   CLOUDY    58  58 100 E12       30.13R FOG
CHARLES CITY * FOG       55  55 100 E10       30.15R VSB 1
CLINTON *      PTCLDY    57  54  88 E12       30.19F
DECORAH *      CLOUDY    54  54 100 E10       30.15S FOG
DUBUQUE        CLOUDY    54  53  97 E9        30.18R FOG
MONTICELLO *   CLOUDY    59  59 100 E10G17    30.16R
OELWEIN *      CLOUDY    55  55 100 E15       30.15S FOG
WATERLOO       CLOUDY    57  56  96 E14       30.13R FOG
$$

IAZ064-065-067-068-078-060400-
   EAST CENTRAL IOWA

CITY           SKY/WX    TMP DP  RH WIND       PRES   REMARKS
DAVENPORT      CLOUDY    60  57  89 E12       30.16S FOG
IOWA CITY      CLOUDY    62  60  93 E8        30.15R FOG
MT. PLEASANT * MOCLDY    68  66  94 E10       30.12R
MUSCATINE *    CLOUDY    66  63  88 E8G14     30.14R HAZE
QUAD CITIES    CLOUDY    62  58  86 E15       30.15R FOG
$$

IAZ062-063-075>077-085>089-095>099-060400-
   SOUTHEAST IOWA

CITY           SKY/WX    TMP DP  RH WIND       PRES   REMARKS
BURLINGTON     PTCLDY    70  66  87 E9        30.12R
FAIRFIELD *    CLOUDY    68  64  88 E13       30.10R
FORT MADISON * MOCLDY    72  63  73 E7        30.12R
KEOKUK *       PTCLDY    70  61  73 SE3       30.10R
OSKALOOSA *      N/A     66  63  88 E13       30.09R FOG
CENTERVILLE *  CLEAR     66  63  88 SE7       30.10R
OTTUMWA        CLOUDY    67  66  97 E12       30.09R FOG
WASHINGTON *   MOCLDY    66  64  94 E16       30.12R FOG
$$

ABBREVIATIONS USED IN REMARKS
   TC - TEMPERATURES IN CELSIUS
  WCI - WIND CHILL INDEX
   HX - HEAT INDEX
  VSB - VISIBILITY
$$



USA.gov is the U.S. government's official web portal to all federal, state and local government web resources and services.